Terminal Aerodrome Forecast
Issued by NWS

Home | Current Version | Previous Version | Text Only | Print | Product List | Glossary On
Versions: 1 2 3 4 5 6 7 8 9 10 11 12 13 14
000
FTUS46 KLOX 012329
TAFSBA
TAF
KSBA 012329Z 0200/0224 26008KT P6SM VCSH SCT080 BKN150
     FM020400 VRB03KT P6SM SCT004 BKN150
     FM021700 16006KT P6SM SCT004 SCT150
     FM022200 25008KT P6SM SCT150=

USA.gov is the U.S. government's official web portal to all federal, state and local government web resources and services.